SCP
0 0 0 0 0 0 -0 0 0 0 0 0 0 0 0 0 -0 0 0 0 0 0 0 0 0 0 0 -0 0 0 0 0 0 0 0 0 0 0 0 0 0 0 0 0
0 0 0 0 0 0 0 0 0 0 0 0 0 0 0 0 0 0 0 0 0 0 0 0 -0 0 0 0 -0 0 0 0 0 0 0 0 0 0 0 0 0 0 0 0
0 0 0 0 0 0 0 0 0 0 0 0 0 0 0 0 -0 0 0 0 0 0 0 0 -0 0 0 0 0 -0 -0 0 0 0 0 0 0 0 0 0 0 0 0 0
0 0 0 0 0 0 0 0 0 0 0 0 0 0 0 0 0 -0 -0 0 -0 -0 -0 -0 -0 0 0 0 0 0 0 0 0 0 0 0 0 0 0 0 0 0 0 0
0 0 0 0 0 0 0 0 0 0 0 0 0 0 0 0 0 0 0 0 0 -0 -0 -0 -0 -0 0 0 0 0 0 0 0 0 0 0 0 0 0 0 0 0 0 0
0 0 0 0 0 0 0 0 0 0 0 0 0 0 0 0 0 0 0 0 0 -0 0 0 0 0 0 0 0 0 0 0 0 0 0 0 0 0 0 0 0 -0 0 0
0 0 0 0 0 0 0 0 0 0 0 0 0 0 0 0 0 0 0 0 0 0 0 0 0 -0 -0 0 0 0 0 0 0 0 0 0 0 0 0 0 0 0 0 0
0 0 0 0 0 0 0 0 0 0 0 0 0 0 0 0 0 0 0 0 0 0 0 0 0 0 0 0 0 0 0 0 0 0 0 0 0 0 0 0 0 0 0 0
0 0 0 0 0 0 0 0 0 0 0 0 0 0 0 0 0 0 0 0 0 0 0 0 0 0 0 0 0 0 0 0 0 0 0 0 0 0 0 0 0 0 0 0
0 0 0 0 0 0 0 0 0 0 0 0 0 0 0 0 0 0 0 0 0 0 0 0 0 0 0 0 0 0 0 0 0 0 0 0 0 0 0 0 0 0 0 0
0 0 0 0 0 0 0 0 0 0 0 0 0 0 0 0 0 0 0 0 0 0 0 0 0 0 0 0 0 0 0 0 0 0 0 0 0 0 1 1 0 0 0 0
0 0 0 0 0 0 0 0 0 0 0 0 0 0 0 0 0 0 0 0 0 0 0 0 0 0 0 0 0 0 0 0 -0 0 0 0 0 0 0 0 0 0 0 0
0 0 0 0 0 0 0 0 0 0 0 0 0 0 0 -0 -0 0 0 0 0 0 0 0 0 0 0 0 0 0 0 0 0 0 0 0 0 0 0 0 0 0 0 0
0 0 0 0 0 0 0 0 0 0 0 0 0 0 0 0 0 0 0 0 0 0 0 0 0 0 0 0 0 0 0 0 0 0 0 0 0 0 0 0 0 0 0 0
0 0 0 0 0 0 0 0 0 0 0 0 0 0 0 0 0 0 0 0 0 0 0 0 0 0 0 0 0 0 0 0 0 0 0 0 0 0 0 0 0 0 0 0
0 0 0 0 0 0 0 0 0 0 0 0 0 0 0 0 0 0 0 0 0 0 0 0 0 0 0 0 0 0 0 0 0 0 0 0 0 0 0 0 0 0 0 0
0 0 0 0 0 0 0 0 0 0 0 0 0 0 0 0 0 0 0 0 0 0 0 0 0 0 0 0 0 0 0 0 0 0 0 0 0 0 0 0 0 0 0 0
0 0 0 0 0 0 0 0 0 0 0 0 0 0 0 0 0 0 0 0 0 0 0 0 0 0 0 0 0 0 0 0 0 0 0 0 0 0 0 0 0 0 0 0
0 0 0 0 0 0 0 0 0 0 0 0 0 0 0 0 0 0 0 0 0 0 0 0 0 0 0 0 0 0 0 0 0 0 0 0 0 0 0 0 0 0 0 0
0 0 0 0 0 0 0 0 0 0 0 0 0 0 0 0 0 0 0 0 0 0 0 0 0 0 0 0 0 0 0 0 0 0 0 0 0 0 0 0 0 0 0 0
0 0 0 0 0 0 0 0 0 0 0 0 0 0 0 0 0 0 0 0 0 0 0 0 0 0 0 0 0 0 0 0 0 0 0 0 0 0 0 0 0 0 0 0
0 0 0 0 0 0 0 0 0 0 0 0 0 0 0 0 0 0 0 0 0 0 0 0 0 0 0 0 0 0 0 0 0 0 0 0 0 0 0 0 0 0 0 0
0 0 0 0 0 0 0 0 0 0 0 0 0 0 0 0 0 0 0 0 0 0 0 0 0 0 0 0 0 0 0 0 0 0 0 0 0 0 0 0 0 0 0 0
0 0 0 0 0 0 0 0 0 0 0 0 0 0 0 0 0 0 0 0 0 0 0 0 0 0 0 0 0 0 0 -0 0 0 0 0 0 0 0 0 0 0 0 0
0 0 0 0 0 0 0 0 0 0 0 0 0 0 0 0 0 0 0 0 0 0 0 0 0 0 0 0 -0 -0 -0 0 0 0 0 0 0 0 0 0 -0 0 0 0
0 0 0 0 0 0 0 0 0 0 0 0 0 0 0 0 0 0 0 0 0 0 0 0 0 0 -0 -0 -0 -0 -0 0 0 0 0 0 0 0 0 -0 -0 -0 0 0
0 0 0 0 0 0 0 0 0 0 0 0 0 0 0 0 0 0 0 0 0 0 0 0 -0 -0 0 -0 0 0 0 0 0 0 0 0 0 0 0 0 0 0 0 0
Wind_Speed_500mb
44 46 49 52 56 63 47 23 8 19 48 10 9 6 9 11 23 39 18 13 29 24 32 47 30 43 28 64 48 24 20 14 27 36 23 17 17 20 15 12 11 3 10 13
41 41 43 46 48 54 59 42 19 27 38 6 7 12 16 18 19 22 14 18 29 27 28 24 18 14 19 27 50 40 25 12 17 18 14 6 17 12 13 11 9 14 13 11
42 39 40 41 43 42 45 14 7 11 14 24 3 10 14 18 22 21 28 37 39 27 27 14 9 12 11 8 51 85 36 11 20 30 17 10 12 15 15 16 11 12 13 10
41 41 37 40 42 40 27 8 8 11 8 7 18 6 11 25 30 18 17 20 4 11 16 12 7 10 14 4 17 42 22 20 14 18 36 21 29 28 18 11 18 19 16 22
41 40 38 37 40 36 11 12 11 16 19 31 10 10 5 21 27 17 15 9 15 17 6 7 3 1 5 9 17 8 12 15 20 34 19 17 16 12 23 15 11 2 13 13
39 40 36 33 33 34 12 16 17 8 16 10 9 2 19 33 34 18 4 3 5 5 10 33 30 35 20 19 8 8 21 14 10 18 15 14 9 11 10 2 9 10 14 23
38 36 36 31 27 23 18 23 19 10 9 6 10 27 35 34 35 20 17 8 6 8 35 47 17 23 16 9 7 7 12 17 6 10 9 10 13 4 26 20 10 14 13 16
35 34 35 36 27 24 26 18 11 10 8 10 27 31 20 42 45 10 6 27 20 30 12 9 12 10 13 10 15 16 5 10 9 11 10 8 6 8 12 14 9 11 6 13
33 35 31 31 30 27 28 19 11 16 11 10 13 23 16 10 12 14 13 47 17 28 5 8 2 5 6 7 13 6 19 17 9 6 12 9 4 11 14 16 12 16 16 17
34 33 32 28 29 27 25 12 11 10 16 39 13 6 12 15 14 8 12 32 22 38 9 3 5 6 0 6 9 10 10 10 9 6 7 3 11 16 3 16 13 17 36 32
31 31 29 26 28 26 22 11 5 9 14 53 57 28 12 19 12 6 21 10 16 11 12 1 5 5 11 6 6 9 8 6 6 7 9 8 43 20 14 9 30 44 40 39
31 27 26 26 24 26 21 22 14 14 23 38 46 46 49 45 31 27 14 1 3 2 6 7 5 7 8 8 7 8 5 10 8 8 6 12 34 27 36 38 47 57 53 39
27 25 23 20 21 24 21 24 8 14 22 47 27 16 5 24 21 16 8 2 11 9 14 3 7 6 3 4 2 10 10 5 8 12 9 11 16 33 41 53 59 57 56 42
25 27 24 19 19 22 21 24 9 12 14 9 15 9 2 13 20 24 25 25 7 22 20 5 3 4 9 5 7 5 8 3 12 5 4 13 18 14 41 33 29 18 19 18
19 16 16 15 16 19 20 22 14 16 7 9 27 34 21 25 21 19 17 9 8 9 4 0 5 5 8 6 7 6 5 12 10 9 13 13 1 25 31 42 32 22 18 10
15 15 15 14 16 14 8 5 18 11 11 9 7 11 18 13 6 10 18 16 12 12 7 6 6 4 8 6 2 12 5 13 32 18 41 24 28 32 29 35 28 18 20 26
16 17 15 13 15 13 14 7 12 17 14 7 9 10 6 12 6 6 4 15 6 6 3 2 3 5 11 5 5 7 23 18 35 47 40 41 26 25 28 27 31 25 22 26
13 13 12 13 12 11 18 1 3 11 8 9 6 8 6 15 5 6 6 4 4 5 2 2 5 6 9 6 8 47 56 65 59 56 53 48 41 36 35 29 26 28 31 28
10 9 9 1 7 3 1 7 9 9 9 6 6 4 6 12 9 9 10 6 1 3 2 3 6 9 14 7 30 56 55 51 45 42 37 32 36 33 31 30 32 32 32 30
6 2 2 2 1 6 9 7 5 7 9 9 7 10 6 11 10 3 3 3 4 3 7 15 9 6 38 53 57 56 53 49 36 36 37 24 21 22 22 20 21 26 34 37
4 4 5 2 5 5 5 5 8 8 5 11 12 13 5 16 6 3 5 3 1 4 5 8 6 6 16 38 43 40 36 32 27 19 11 7 10 18 26 31 33 29 25 32
4 6 5 3 3 5 2 5 7 7 7 7 6 7 1 8 8 6 9 3 5 3 6 7 6 3 24 32 32 30 26 24 19 14 12 12 11 12 14 17 22 27 26 26
4 5 5 5 3 8 4 4 6 4 7 2 10 4 6 10 16 7 7 9 4 7 8 7 5 11 22 29 23 24 24 24 18 18 16 21 15 17 26 33 31 24 22 33
4 7 10 3 5 6 3 3 5 12 9 31 23 13 7 9 9 5 7 5 4 8 9 5 2 18 24 22 22 25 24 23 23 27 26 22 24 29 30 28 24 19 22 26
4 5 8 3 17 15 12 5 6 29 31 19 12 11 9 7 6 4 4 5 9 9 6 5 8 20 21 17 18 26 25 25 26 30 35 31 31 30 29 23 19 21 19 24
8 6 7 22 15 22 29 27 25 32 20 14 12 6 7 6 2 8 8 6 9 3 1 13 16 17 12 7 6 15 19 21 23 28 30 30 31 33 31 27 21 20 18 16
8 5 12 5 13 14 22 27 32 24 20 6 6 7 2 3 4 8 7 5 4 4 7 11 14 13 10 12 12 18 22 23 23 28 28 27 34 33 27 25 21 19 14 11
Wind_Direction_500mb
325 330 335 338 339 335 335 354 323 324 160 129 193 213 224 229 260 281 286 278 264 270 298 302 269 220 201 193 203 199 197 175 236 248 249 238 169 174 148 142 230 154 166 263
324 328 334 338 344 347 342 331 283 219 208 269 253 277 269 263 265 247 253 256 267 279 285 280 239 201 220 221 202 202 198 210 236 297 330 345 184 169 145 110 93 184 142 254
322 325 330 335 339 343 332 312 322 316 222 282 344 5 287 284 287 272 280 279 276 289 272 246 280 283 274 251 205 209 174 146 193 226 214 187 201 174 162 142 142 174 203 191
317 322 327 331 334 339 327 249 254 5 320 313 323 272 273 294 304 280 277 294 74 338 272 293 322 322 324 297 249 215 162 187 159 215 223 215 211 194 160 151 183 171 216 180
314 318 322 332 335 346 335 316 357 335 292 289 299 281 285 325 309 262 276 254 341 344 297 280 268 313 305 278 325 249 175 222 156 226 235 221 172 205 170 152 138 10 159 211
314 316 317 326 337 346 346 321 306 321 286 309 320 19 332 310 316 306 72 290 320 24 314 299 260 259 246 237 273 294 155 147 123 215 157 121 89 132 231 307 54 182 176 221
303 320 323 319 327 333 323 322 317 288 277 314 304 320 313 309 304 271 282 242 177 285 300 318 298 254 317 289 262 225 157 127 113 174 110 138 232 207 107 92 4 332 252 181
298 300 308 314 314 311 302 311 286 276 285 322 301 344 311 312 324 308 346 5 335 330 293 4 351 353 0 297 55 348 17 109 87 134 142 200 36 56 150 133 337 320 183 92
292 289 296 304 308 308 300 311 215 257 293 246 351 316 322 312 325 318 321 356 19 351 82 79 67 169 242 292 324 1 48 60 97 79 120 156 231 294 24 99 19 325 73 95
292 285 283 291 299 304 300 270 272 285 276 275 319 283 302 321 312 276 320 331 354 18 3 74 152 260 161 342 4 349 12 8 56 72 120 314 285 301 193 74 220 319 83 80
286 290 283 283 289 299 296 219 248 323 278 279 282 272 297 319 318 315 314 348 8 23 25 251 275 183 222 117 38 98 76 46 349 356 56 33 348 312 86 192 77 70 70 93
281 283 279 280 279 291 289 278 227 297 267 265 287 275 266 267 259 285 299 291 24 355 8 343 360 326 14 155 100 325 56 146 150 92 145 271 351 65 83 93 77 70 68 66
278 279 282 275 270 286 277 278 284 316 293 297 282 298 240 210 212 248 270 316 7 336 336 224 243 292 50 63 162 117 17 70 103 119 190 292 27 73 65 68 71 70 62 54
270 275 281 279 271 284 268 265 244 268 288 280 289 329 226 230 226 236 246 253 302 304 303 256 251 263 29 48 172 73 144 156 99 251 80 74 61 72 94 77 55 59 69 68
271 272 284 272 285 286 271 263 246 191 272 292 286 305 269 244 249 224 213 202 242 280 297 111 256 274 22 8 44 44 152 179 176 203 149 117 13 100 105 84 81 63 54 26
262 265 289 276 292 286 304 142 158 195 221 265 294 302 259 241 227 200 202 213 248 234 245 244 302 7 95 79 146 302 133 176 137 137 154 127 91 76 76 77 77 75 36 22
252 264 289 283 290 260 217 221 165 203 228 251 294 286 268 207 237 267 178 195 214 235 235 228 248 347 89 64 93 257 121 72 131 123 98 86 83 62 57 52 48 56 62 44
253 264 284 291 276 257 237 38 249 207 245 242 275 272 298 195 223 255 207 171 215 217 234 329 127 0 62 84 29 106 94 89 86 82 82 77 75 66 52 48 39 36 27 16
243 269 296 308 177 199 298 275 271 256 243 271 275 278 287 184 248 224 182 207 108 180 111 281 92 5 27 11 73 75 82 85 84 84 76 65 52 39 28 16 8 359 349 342
219 224 13 223 278 302 288 249 222 221 219 232 243 269 285 323 359 341 113 172 163 143 237 88 89 88 40 49 61 65 65 66 71 67 41 23 10 358 350 348 336 333 327 320
79 335 273 297 193 227 249 252 201 208 240 221 237 246 249 5 61 312 32 174 319 86 270 109 84 44 2 39 45 47 55 60 61 63 56 8 324 320 317 310 307 308 309 315
350 316 340 39 294 254 252 247 269 208 233 215 209 247 231 5 357 51 2 57 29 82 302 79 79 38 16 20 23 29 31 38 48 42 25 15 1 346 324 321 309 307 304 314
14 353 332 340 263 26 255 276 290 263 303 120 153 49 24 12 9 49 46 43 305 306 49 66 75 40 20 5 13 19 12 12 14 8 3 356 359 345 335 328 319 320 325 328
0 317 335 138 300 259 332 21 319 319 50 78 90 52 49 358 28 10 52 294 29 42 54 80 326 20 17 18 25 15 11 10 25 16 6 6 9 2 5 7 3 344 341 343
348 326 341 326 322 332 320 165 38 5 18 58 59 38 34 2 40 13 24 35 59 43 65 13 360 14 12 29 46 40 52 45 42 31 39 32 27 21 22 16 24 16 14 5
3 2 341 344 15 346 16 40 38 8 4 20 55 52 38 5 59 26 10 39 52 71 347 353 349 345 353 12 28 29 34 31 20 18 16 9 11 16 22 18 13 14 14 19
5 304 33 333 290 295 354 39 30 36 51 19 27 50 352 5 27 47 30 62 158 89 18 352 329 324 8 26 31 26 28 23 18 19 12 7 5 2 358 359 8 1 357 9
Wind_Speed_850mb
44 46 49 52 56 63 47 23 8 19 48 10 9 6 9 11 23 39 18 13 29 24 32 47 30 43 28 64 48 24 20 14 27 36 23 17 17 20 15 12 11 3 10 13
41 41 43 46 48 54 59 42 19 27 38 6 7 12 16 18 19 22 14 18 29 27 28 24 18 14 19 27 50 40 25 12 17 18 14 6 17 12 13 11 9 14 13 11
42 39 40 41 43 42 45 14 7 11 14 24 3 10 14 18 22 21 28 37 39 27 27 14 9 12 11 8 51 85 36 11 20 30 17 10 12 15 15 16 11 12 13 10
41 41 37 40 42 40 27 8 8 11 8 7 18 6 11 25 30 18 17 20 4 11 16 12 7 10 14 4 17 42 22 20 14 18 36 21 29 28 18 11 18 19 16 22
41 40 38 37 40 36 11 12 11 16 19 31 10 10 5 21 27 17 15 9 15 17 6 7 3 1 5 9 17 8 12 15 20 34 19 17 16 12 23 15 11 2 13 13
39 40 36 33 33 34 12 16 17 8 16 10 9 2 19 33 34 18 4 3 5 5 10 33 30 35 20 19 8 8 21 14 10 18 15 14 9 11 10 2 9 10 14 23
38 36 36 31 27 23 18 23 19 10 9 6 10 27 35 34 35 20 17 8 6 8 35 47 17 23 16 9 7 7 12 17 6 10 9 10 13 4 26 20 10 14 13 16
35 34 35 36 27 24 26 18 11 10 8 10 27 31 20 42 45 10 6 27 20 30 12 9 12 10 13 10 15 16 5 10 9 11 10 8 6 8 12 14 9 11 6 13
33 35 31 31 30 27 28 19 11 16 11 10 13 23 16 10 12 14 13 47 17 28 5 8 2 5 6 7 13 6 19 17 9 6 12 9 4 11 14 16 12 16 16 17
34 33 32 28 29 27 25 12 11 10 16 39 13 6 12 15 14 8 12 32 22 38 9 3 5 6 0 6 9 10 10 10 9 6 7 3 11 16 3 16 13 17 36 32
31 31 29 26 28 26 22 11 5 9 14 53 57 28 12 19 12 6 21 10 16 11 12 1 5 5 11 6 6 9 8 6 6 7 9 8 43 20 14 9 30 44 40 39
31 27 26 26 24 26 21 22 14 14 23 38 46 46 49 45 31 27 14 1 3 2 6 7 5 7 8 8 7 8 5 10 8 8 6 12 34 27 36 38 47 57 53 39
27 25 23 20 21 24 21 24 8 14 22 47 27 16 5 24 21 16 8 2 11 9 14 3 7 6 3 4 2 10 10 5 8 12 9 11 16 33 41 53 59 57 56 42
25 27 24 19 19 22 21 24 9 12 14 9 15 9 2 13 20 24 25 25 7 22 20 5 3 4 9 5 7 5 8 3 12 5 4 13 18 14 41 33 29 18 19 18
19 16 16 15 16 19 20 22 14 16 7 9 27 34 21 25 21 19 17 9 8 9 4 0 5 5 8 6 7 6 5 12 10 9 13 13 1 25 31 42 32 22 18 10
15 15 15 14 16 14 8 5 18 11 11 9 7 11 18 13 6 10 18 16 12 12 7 6 6 4 8 6 2 12 5 13 32 18 41 24 28 32 29 35 28 18 20 26
16 17 15 13 15 13 14 7 12 17 14 7 9 10 6 12 6 6 4 15 6 6 3 2 3 5 11 5 5 7 23 18 35 47 40 41 26 25 28 27 31 25 22 26
13 13 12 13 12 11 18 1 3 11 8 9 6 8 6 15 5 6 6 4 4 5 2 2 5 6 9 6 8 47 56 65 59 56 53 48 41 36 35 29 26 28 31 28
10 9 9 1 7 3 1 7 9 9 9 6 6 4 6 12 9 9 10 6 1 3 2 3 6 9 14 7 30 56 55 51 45 42 37 32 36 33 31 30 32 32 32 30
6 2 2 2 1 6 9 7 5 7 9 9 7 10 6 11 10 3 3 3 4 3 7 15 9 6 38 53 57 56 53 49 36 36 37 24 21 22 22 20 21 26 34 37
4 4 5 2 5 5 5 5 8 8 5 11 12 13 5 16 6 3 5 3 1 4 5 8 6 6 16 38 43 40 36 32 27 19 11 7 10 18 26 31 33 29 25 32
4 6 5 3 3 5 2 5 7 7 7 7 6 7 1 8 8 6 9 3 5 3 6 7 6 3 24 32 32 30 26 24 19 14 12 12 11 12 14 17 22 27 26 26
4 5 5 5 3 8 4 4 6 4 7 2 10 4 6 10 16 7 7 9 4 7 8 7 5 11 22 29 23 24 24 24 18 18 16 21 15 17 26 33 31 24 22 33
4 7 10 3 5 6 3 3 5 12 9 31 23 13 7 9 9 5 7 5 4 8 9 5 2 18 24 22 22 25 24 23 23 27 26 22 24 29 30 28 24 19 22 26
4 5 8 3 17 15 12 5 6 29 31 19 12 11 9 7 6 4 4 5 9 9 6 5 8 20 21 17 18 26 25 25 26 30 35 31 31 30 29 23 19 21 19 24
8 6 7 22 15 22 29 27 25 32 20 14 12 6 7 6 2 8 8 6 9 3 1 13 16 17 12 7 6 15 19 21 23 28 30 30 31 33 31 27 21 20 18 16
8 5 12 5 13 14 22 27 32 24 20 6 6 7 2 3 4 8 7 5 4 4 7 11 14 13 10 12 12 18 22 23 23 28 28 27 34 33 27 25 21 19 14 11
Wind_Direction_850mb
325 330 335 338 339 335 335 354 323 324 160 129 193 213 224 229 260 281 286 278 264 270 298 302 269 220 201 193 203 199 197 175 236 248 249 238 169 174 148 142 230 154 166 263
324 328 334 338 344 347 342 331 283 219 208 269 253 277 269 263 265 247 253 256 267 279 285 280 239 201 220 221 202 202 198 210 236 297 330 345 184 169 145 110 93 184 142 254
322 325 330 335 339 343 332 312 322 316 222 282 344 5 287 284 287 272 280 279 276 289 272 246 280 283 274 251 205 209 174 146 193 226 214 187 201 174 162 142 142 174 203 191
317 322 327 331 334 339 327 249 254 5 320 313 323 272 273 294 304 280 277 294 74 338 272 293 322 322 324 297 249 215 162 187 159 215 223 215 211 194 160 151 183 171 216 180
314 318 322 332 335 346 335 316 357 335 292 289 299 281 285 325 309 262 276 254 341 344 297 280 268 313 305 278 325 249 175 222 156 226 235 221 172 205 170 152 138 10 159 211
314 316 317 326 337 346 346 321 306 321 286 309 320 19 332 310 316 306 72 290 320 24 314 299 260 259 246 237 273 294 155 147 123 215 157 121 89 132 231 307 54 182 176 221
303 320 323 319 327 333 323 322 317 288 277 314 304 320 313 309 304 271 282 242 177 285 300 318 298 254 317 289 262 225 157 127 113 174 110 138 232 207 107 92 4 332 252 181
298 300 308 314 314 311 302 311 286 276 285 322 301 344 311 312 324 308 346 5 335 330 293 4 351 353 0 297 55 348 17 109 87 134 142 200 36 56 150 133 337 320 183 92
292 289 296 304 308 308 300 311 215 257 293 246 351 316 322 312 325 318 321 356 19 351 82 79 67 169 242 292 324 1 48 60 97 79 120 156 231 294 24 99 19 325 73 95
292 285 283 291 299 304 300 270 272 285 276 275 319 283 302 321 312 276 320 331 354 18 3 74 152 260 161 342 4 349 12 8 56 72 120 314 285 301 193 74 220 319 83 80
286 290 283 283 289 299 296 219 248 323 278 279 282 272 297 319 318 315 314 348 8 23 25 251 275 183 222 117 38 98 76 46 349 356 56 33 348 312 86 192 77 70 70 93
281 283 279 280 279 291 289 278 227 297 267 265 287 275 266 267 259 285 299 291 24 355 8 343 360 326 14 155 100 325 56 146 150 92 145 271 351 65 83 93 77 70 68 66
278 279 282 275 270 286 277 278 284 316 293 297 282 298 240 210 212 248 270 316 7 336 336 224 243 292 50 63 162 117 17 70 103 119 190 292 27 73 65 68 71 70 62 54
270 275 281 279 271 284 268 265 244 268 288 280 289 329 226 230 226 236 246 253 302 304 303 256 251 263 29 48 172 73 144 156 99 251 80 74 61 72 94 77 55 59 69 68
271 272 284 272 285 286 271 263 246 191 272 292 286 305 269 244 249 224 213 202 242 280 297 111 256 274 22 8 44 44 152 179 176 203 149 117 13 100 105 84 81 63 54 26
262 265 289 276 292 286 304 142 158 195 221 265 294 302 259 241 227 200 202 213 248 234 245 244 302 7 95 79 146 302 133 176 137 137 154 127 91 76 76 77 77 75 36 22
252 264 289 283 290 260 217 221 165 203 228 251 294 286 268 207 237 267 178 195 214 235 235 228 248 347 89 64 93 257 121 72 131 123 98 86 83 62 57 52 48 56 62 44
253 264 284 291 276 257 237 38 249 207 245 242 275 272 298 195 223 255 207 171 215 217 234 329 127 0 62 84 29 106 94 89 86 82 82 77 75 66 52 48 39 36 27 16
243 269 296 308 177 199 298 275 271 256 243 271 275 278 287 184 248 224 182 207 108 180 111 281 92 5 27 11 73 75 82 85 84 84 76 65 52 39 28 16 8 359 349 342
219 224 13 223 278 302 288 249 222 221 219 232 243 269 285 323 359 341 113 172 163 143 237 88 89 88 40 49 61 65 65 66 71 67 41 23 10 358 350 348 336 333 327 320
79 335 273 297 193 227 249 252 201 208 240 221 237 246 249 5 61 312 32 174 319 86 270 109 84 44 2 39 45 47 55 60 61 63 56 8 324 320 317 310 307 308 309 315
350 316 340 39 294 254 252 247 269 208 233 215 209 247 231 5 357 51 2 57 29 82 302 79 79 38 16 20 23 29 31 38 48 42 25 15 1 346 324 321 309 307 304 314
14 353 332 340 263 26 255 276 290 263 303 120 153 49 24 12 9 49 46 43 305 306 49 66 75 40 20 5 13 19 12 12 14 8 3 356 359 345 335 328 319 320 325 328
0 317 335 138 300 259 332 21 319 319 50 78 90 52 49 358 28 10 52 294 29 42 54 80 326 20 17 18 25 15 11 10 25 16 6 6 9 2 5 7 3 344 341 343
348 326 341 326 322 332 320 165 38 5 18 58 59 38 34 2 40 13 24 35 59 43 65 13 360 14 12 29 46 40 52 45 42 31 39 32 27 21 22 16 24 16 14 5
3 2 341 344 15 346 16 40 38 8 4 20 55 52 38 5 59 26 10 39 52 71 347 353 349 345 353 12 28 29 34 31 20 18 16 9 11 16 22 18 13 14 14 19
5 304 33 333 290 295 354 39 30 36 51 19 27 50 352 5 27 47 30 62 158 89 18 352 329 324 8 26 31 26 28 23 18 19 12 7 5 2 358 359 8 1 357 9